Location: Brantley
(31.5822°N, 86.2569°W)
Time: 02:47:53
(UTC+00:00)

Courier 1B Rocket - Pass Details

Date: 18 February 2026
Orbit: 920 x 1201 km, 28.2° (Epoch: 13 March)

Event Time Altitude Azimuth Distance (km) Brightness Sun altitude
Rises 01:57:51 0° 256° (WSW) 3,551 8.9 -31.3°
Reaches altitude 10° 02:00:26 10° 253° (WSW) 2,621 8.0 -31.8°
Enters shadow 02:05:20 52° 223° (SW) 1,164 5.5 -32.9°
Maximum altitude 02:06:38 63° 174° (S) 1,054 - -33.2°
Drops below altitude 10° 02:13:12 10° 94° (E) 2,762 - -34.5°
Sets 02:15:59 0° 91° (E) 3,756 - -35.1°
